Regional Weather Roundup
Issued by NWS Kansas City/Pleasant Hill, MO

Home | Current Version | Previous Version | Graphics & Text | Print | Product List | Glossary Off
Versions: 1 2 3 4 5 6 7 8 9 10 11 12 13 14 15 16 17 18 19 20 21 22 23 24 25 26 27

000
ASUS43 KEAX 180310
RWREAX

WEATHER ROUNDUP FOR EASTERN KANSAS AND NORTHWEST MISSOURI
NATIONAL WEATHER SERVICE KANSAS CITY/PLEASANT HILL MO
1000 PM CDT THU AUG 17 2017

KSZ040-057-103>105-MOZ028-029-037-043-180400-
...KANSAS CITY METROPOLITAN AREA...

CITY           SKY/WX    TMP DP  RH WIND       PRES   REMARKS
K.C. INTL      CLEAR     76  61  59 SW5       29.95R
K.C. DOWNTOWN  CLEAR     75  65  70 CALM      29.93R
LEES SUMMIT    CLEAR     73  63  70 SW6       29.96R
OLATHE - IXD   CLEAR     70  62  76 S6        29.97R
OLATHE - OJC   CLEAR     71  64  78 SW3       29.96R
LAWRENCE       CLEAR     66  65  96 NE3       29.95R

$$

MOZ001>008-011>017-020>025-030>033-038>040-044>046-053-054-180400-
...NORTHERN AND CENTRAL MISSOURI...

CITY           SKY/WX    TMP DP  RH WIND       PRES   REMARKS
ST. JOSEPH     CLEAR     64  62  93 CALM      29.94R
MOSBY          CLEAR     66  64  94 CALM      29.95R
WARRENSBURG    CLEAR     70  61  73 SW5       29.94S
WHITEMAN AFB   CLEAR     71  70  98 W7        29.94R
CLINTON        CLEAR     70  64  83 SW7       29.96R
SEDALIA        CLEAR     72  66  81 W6        29.96R
WARSAW         NOT AVBL
CHILLICOTHE      N/A     66  62  87 CALM      29.95R
KIRKSVILLE     CLEAR     70  61  73 W5        29.93R

$$

MOZ041-047>049-056>058-063>065-088>090-097-180400-
...EASTERN AND SOUTHERN MISSOURI...

CITY           SKY/WX    TMP DP  RH WIND       PRES   REMARKS
ST. LOUIS INTL PTCLDY    76  66  71 W7        29.92R
SPIRIT OF STL  CLEAR     69  68  96 SW3       29.91R
COLUMBIA       CLEAR     68  61  78 SW5       29.94R
JEFFERSON CITY CLEAR     70  68  93 E3        29.93R
ROLLA          CLEAR     67  64  90 SW7       29.98R
OSAGE BEACH    CLEAR     68  64  87 CALM      29.97R
SPRINGFIELD    CLEAR     69  63  81 W3        30.00R
BRANSON        CLEAR     73  68  83 CALM      30.02R
JOPLIN         CLEAR     69  67  93 CALM      30.00R
WEST PLAINS    CLEAR     73  65  75 NW6       30.00R

$$

IAZ060-094-KSZ022-034>040-054-083-096-NEZ052-066-093-180400-
...KANSAS...SOUTHEAST NEBRASKA AND IOWA...

CITY           SKY/WX    TMP DP  RH WIND       PRES   REMARKS
TOPEKA         CLEAR     67  63  87 CALM      29.95R
MANHATTAN      CLEAR     67  64  90 CALM      29.96R
EMPORIA        CLEAR     68  63  84 S8        29.98R
CHANUTE        CLEAR     70  65  84 S5        29.99R
WICHITA        CLOUDY    74  62  66 S9        29.99R
OMAHA          CLEAR     71  62  73 E3        29.91R
LINCOLN        CLEAR     70  64  81 S5        29.94R
FALLS CITY     CLEAR     67  62  84 CALM      29.93R
LAMONI         CLEAR     68  60  75 SW5       29.93R
DES MOINES     CLEAR     72  60  66 W5        29.89R

$$





USA.gov is the U.S. government's official web portal to all federal, state and local government web resources and services.